Tapachula Airport, Mexico

12:08 PM CDT on September 26, 2017 (GMT -0500)
Tapachula International

Weather History for MMTP - October, 2013

Change the Weather History Date:

Tuesday, October 15, 2013

  Actual Average Record
Temperature  
Mean Temperature 80 °F -  
Max Temperature 87 °F 85 °F 89 °F (1996)
Min Temperature 73 °F 73 °F 68 °F (1997)
Cooling Degree Days 15    
Growing Degree Days 30 (Base 50)    
Moisture  
Dew Point 75 °F    
Average Humidity 84    
Maximum Humidity 94    
Minimum Humidity 74    
Precipitation  
Precipitation 0.00 in - - ()
Sea Level Pressure  
Sea Level Pressure 29.85 in    
Wind  
Wind Speed 1 mph ()    
Max Wind Speed 12 mph    
Max Gust Speed -    
Visibility 9.8 miles    
Events      
Averages and records for this station are not official NWS values.
T = Trace of Precipitation, MM = Missing Value Source: Averaged Metar Reports

Daily Weather History Graph

Daily Weather History Graph

Search for Another Location

Airport or City:

Trip Planner

Search our weather history database for the weather conditions in past years. The results will help you decide how hot, cold, wet, or windy it might be!

Date:

Astronomy

Oct. 15, 2013 Rise Set
Actual Time 7:00 AM CDT 6:48 PM CDT
Civil Twilight 6:39 AM CDT 7:10 PM CDT
Nautical Twilight 6:14 AM CDT 7:35 PM CDT
Astronomical Twilight 5:49 AM CDT 8:00 PM CDT
Moon 4:28 PM CDT (10/15) 3:54 AM CDT (10/15)
Length of Visible Light 12h 31m
Length of Day
11h 48m
Waxing Gibbous, 88% of the Moon is Illuminated
Oct 15
Waxing Gibbous
Oct 18
Full
Oct 26
Last Quarter
Nov 3
New
Nov 9
First Quarter

Hourly Weather History & Observations

Time (CDT) Temp. Heat Index Dew Point Humidity Pressure Visibility Wind Dir Wind Speed Gust Speed Precip Events Conditions
12:41 AM 73.4 °F - 71.6 °F 94% 29.88 in 10.0 mi Calm Calm - N/A   Mostly Cloudy
1:40 AM 75.2 °F - 71.6 °F 89% 29.87 in 10.0 mi Calm Calm - N/A   Mostly Cloudy
2:40 AM 75.2 °F - 71.6 °F 89% 29.85 in 10.0 mi Calm Calm - N/A   Mostly Cloudy
3:41 AM 75.2 °F - 71.6 °F 89% 29.80 in 10.0 mi Calm Calm - N/A   Mostly Cloudy
4:40 AM 75.2 °F - 71.6 °F 89% 29.83 in 10.0 mi Calm Calm - N/A   Mostly Cloudy
5:49 AM 75.2 °F - 71.6 °F 89% 29.84 in 10.0 mi Calm Calm - N/A   Mostly Cloudy
6:40 AM 75.2 °F - 69.8 °F 83% 29.82 in 10.0 mi Calm Calm - N/A   Scattered Clouds
7:40 AM 75.2 °F - 69.8 °F 83% 29.87 in 10.0 mi Calm Calm - N/A   Scattered Clouds
8:40 AM 78.8 °F - 73.4 °F 83% 29.89 in 10.0 mi Calm Calm - N/A   Scattered Clouds
9:41 AM 84.2 °F 94.1 °F 77.0 °F 79% 29.86 in 10.0 mi Calm Calm - N/A   Scattered Clouds
10:45 AM 87.8 °F 102.5 °F 78.8 °F 75% 29.92 in 10.0 mi Calm Calm - N/A   Scattered Clouds
11:49 AM 86.0 °F 99.3 °F 78.8 °F 79% 29.90 in 10.0 mi Calm Calm - N/A   Scattered Clouds
12:40 PM 86.0 °F 99.3 °F 78.8 °F 79% 29.82 in 10.0 mi Calm Calm - N/A   Scattered Clouds
1:41 PM 86.0 °F 99.3 °F 78.8 °F 79% 29.85 in 10.0 mi Calm Calm - N/A   Scattered Clouds
2:40 PM 86.0 °F 99.3 °F 78.8 °F 79% 29.83 in 10.0 mi WSW 11.5 mph - N/A   Scattered Clouds
3:40 PM 86.0 °F 99.3 °F 78.8 °F 79% 29.86 in 10.0 mi WSW 11.5 mph - N/A   Scattered Clouds
4:40 PM 86.0 °F 99.3 °F 78.8 °F 79% 29.81 in 10.0 mi Calm Calm - N/A   Scattered Clouds
5:41 PM 86.0 °F 99.3 °F 78.8 °F 79% 29.81 in 10.0 mi WSW 6.9 mph - N/A   Scattered Clouds
6:51 PM 86.0 °F 96.9 °F 77.0 °F 74% 29.78 in 10.0 mi Calm Calm - N/A   Mostly Cloudy
7:43 PM 78.8 °F - 75.2 °F 89% 29.85 in 10.0 mi Calm Calm - N/A   Mostly Cloudy
8:41 PM 78.8 °F - 75.2 °F 89% 29.85 in 10.0 mi Calm Calm - N/A   Mostly Cloudy
10:01 PM 78.8 °F - 75.2 °F 89% 29.86 in 8.0 mi Calm Calm - N/A   Scattered Clouds
10:40 PM 78.8 °F - 75.2 °F 89% 29.91 in 8.0 mi Calm Calm - N/A   Mostly Cloudy